sat.trackr.live / text

‹ back to catalog

STARLINK-33704

NORAD 63650 · 2025-083S

PAYLOAD ACTIVE UNKNOWN

§ Identity

Operator
Country
US
Launch date
2025-04-25
Launch site
AFETR
Launch vehicle
Mass (kg)
RCS (m²)

Purposes: comms

External: N2YO · Heavens-Above · Gunter

§ Orbital elements

Epoch: 2026-09-19T22:16:57.805248Z

Period
94.27 min
Inclination
43.0017°
Eccentricity
0.0001972
Mean motion
15.27584566 rev/d
Perigee alt
481.7 km
Apogee alt
484.4 km
Semi-major
6,861.2 km
B*
3.8016e-4
RAAN
348.2074°
Arg perigee
275.3956°
Mean anomaly
84.6670°
Rev number
7,977

§ Raw data

STARLINK-337041 63650U 25083S   26262.92844682  .00010215  00000+0  38016-3 0  99982 63650  43.0017 348.2074 0001972 275.3956  84.6670 15.27584566 79771

JSON: /api/v1/satellites/63650 · /tle

For live sub-satellite position, see the globe view (requires WebGL).

§ Visibility from observer

Set your observer location to see the next 7 days of passes ≥ 10°. The values pass through the URL so the page stays shareable.

No JS? Fill the form by hand. The geolocation button needs JavaScript.